Location: Wald
(31.7579°N, 86.6655°W)
Time: 12:22:00
(UTC+00:00)

Cosmos 1464 Rocket - Pass Details

Date: 14 July 2020
Orbit: 951 x 1002 km, 82.9° (Epoch: 08 August)

Event Time Altitude Azimuth Distance (km) Brightness Sun altitude
Exits shadow 08:58:16 28° 189° (S) 1,771 4.9 -20.6°
Maximum altitude 09:01:51 83° 275° (W) 1,012 4.0 -20.0°
Drops below altitude 10° 09:08:15 10° 4° (N) 2,771 7.0 -19.0°
Sets 09:10:47 0° 5° (N) 3,719 7.8 -18.6°
